AirNav   Phillips 66 Aviation Fuel
 
 1037 users online  

KFUL Fullerton Municipal Airport
Fullerton, California, USA

GOING TO FULLERTON?


FAA INFORMATION EFFECTIVE 24 MAY 2018

Location

FAA Identifier: FUL
Lat/Long: 33-52-19.2510N / 117-58-47.2230W
33-52.320850N / 117-58.787050W
33.8720142 / -117.9797842
(estimated)
Elevation: 96 ft. / 29.3 m (surveyed)
Variation: 14E (1985)
From city: 3 miles W of FULLERTON, CA
Time zone: UTC -7 (UTC -8 during Standard Time)
Zip code: 92833

Airport Operations

Airport use: Open to the public
Activation date: 04/1940
Control tower: yes
ARTCC: LOS ANGELES CENTER
FSS: RIVERSIDE FLIGHT SERVICE STATION
NOTAMs facility: FUL (NOTAM-D service available)
Attendance: 0700-2100
Pattern altitude: 1100 ft. MSL
Wind indicator: lighted
Segmented circle: yes
Lights: WHEN ATCT CLSD ACTVT MALSR RWY 24; REIL RWY 06 & 24; PVASI RWY 06; PAPI RWY 24; MIRL RWY 06/24; TWY LGTS - CTAF.
Beacon: white-green (lighted land airport)
Operates sunset to sunrise.

Airport Communications

CTAF: 119.1
UNICOM: 122.95
ATIS: 125.05
WX ASOS: PHONE 714-870-1372
FULLERTON GROUND: 121.8 [0700-2100]
FULLERTON TOWER: 119.1 [0700-2100]
SOCAL APPROACH: 125.35
SOCAL DEPARTURE: 125.35
HAWWC SID: 125.35
WX ASOS at LGB (9 nm W): PHONE 562-424-0572
WX ASOS at SNA (13 nm SE): PHONE 714-424-0590
WX AWOS-3PT at EMT (13 nm N): 118.75 ((626) 444-1107)
WX AWOS-3PT at CPM (13 nm W): 127.150 (310-631-4958)
WX AWOS-3PT at POC (16 nm NE): 124.4 (909-596-1523)
WX ASOS at HHR (18 nm W): PHONE 310-973-8930
WX ASOS at CNO (18 nm E): PHONE 909-393-5823
WX AWOS-3PT at AJO (19 nm E): 132.175 (951-340-4764)
  • FOR CLNC DEL WHEN ATCT CLSD CALL SOCAL APCH (800) 448-3724.
  • SANTA ANA RCO 122.45 (RIVERSIDE RADIO)

Nearby radio navigation aids

VOR radial/distance  VOR name  Freq  Var
SLIr020/6.5SEAL BEACH VORTAC115.7015E
POMr203/15.7POMONA VORTAC110.4015E
ELBr299/17.1EL TORO VOR/DME117.2014E
PDZr248/22.6PARADISE VORTAC112.2015E
LAXr084/22.8LOS ANGELES VORTAC113.6015E
SMOr094/25.1SANTA MONICA VOR/DME110.8015E
RALr245/(26.9)RIVERSIDE VOR112.4014E
VNYr115/33.0VAN NUYS VOR/DME113.1015E
SXCr021/37.0SANTA CATALINA VORTAC111.4015E

 
NDB name  Hdg/Dist  Freq  Var  ID
BECCA021/8.523314ELG .-.. --.
EL MONTE154/13.235915EEMT . -- -

Airport Services

Fuel available: 100LL JET-A
Parking: tiedowns
Airframe service: MAJOR
Powerplant service: MAJOR
Bottled oxygen: HIGH
Bulk oxygen: HIGH

Runway Information

Runway 6/24

Dimensions: 3121 x 75 ft. / 951 x 23 m
Surface: asphalt, in good condition
Weight bearing capacity: 
Single wheel: 12.5
Runway edge lights: medium intensity
RUNWAY 6  RUNWAY 24
Latitude: 33-52.263450N33-52.379333N
Longitude: 117-59.088333W117-58.487350W
Elevation: 84.9 ft.95.5 ft.
Gradient: 0.3%0.3%
Traffic pattern: leftright
Runway heading: 063 magnetic, 077 true243 magnetic, 257 true
Displaced threshold: 427 ft.253 ft.
Markings: basic, in good conditionnonprecision, in good condition
Visual slope indicator: pulsating/steady burning VASI on left (4.00 degrees glide path)4-light PAPI on left (4.00 degrees glide path)
Approach lights: MALSR: 1,400 foot medium intensity approach lighting system with runway alignment indicator lights
RY 24 MALSR NON-STD WITH 5 RAIL, NO STEADY BURNING LAMPS.
Runway end identifier lights: yesyes
Touchdown point: yes, no lightsyes, no lights
Instrument approach: LOC/DME
Obstructions: 84 ft. tree, 750 ft. from runway, 220 ft. left of centerline, 6:1 slope to clear
+8 FT FENCE AT 55 FT & +15 FT STREET AT 65 FT FM APCH END RY 06.
55 ft. tree, 581 ft. from runway, 208 ft. left of centerline, 7:1 slope to clear
+8 FT FENCE AT 15 FT & +15 FT STREET AT 17 FT; POLE & RR AT 100 FT FM APCH END RY 24.

Helipad H1

Dimensions: 37 x 37 ft. / 11 x 11 m
Surface: concrete
Traffic pattern: leftleft

Airport Ownership and Management from official FAA records

Ownership: Publicly-owned
Owner: CITY OF FULLERTON
303 W. COMMONWEALTH AVE
FULLERTON, CA 92832
Phone 714-738-6310
Manager: BRENDAN O'REILLY
4011 W COMMONWEALTH AVE
FULLERTON, CA 92833-2537
Phone 714-738-6323

Airport Operational Statistics

Aircraft based on the field: 223
Single engine airplanes: 194
Multi engine airplanes: 17
Jet airplanes: 1
Helicopters: 11
    
Aircraft operations: avg 169/day *
68% local general aviation
32% transient general aviation
<1% air taxi
<1% military
* for 12-month period ending 31 May 2017

Additional Remarks

ARPT HAS NOISE ABATEMENT PROCEDURES CTC AMGR (714) 738-6323.
RY 06 CALM WIND RY.
PORTIONS OF TWY A BTN INTERSECTION F & WEST END NOT VSBL FM ATCT.
FOR NOISE ABATEMENT RY 06 PREFERRED FOR TKOF; FOLLOW RR TRACKS TO EAST WITH NO TURNS BLO 1000 FT AGL. RY 24 DEP CLIMB TO 700 FT AGL PRIOR TO TURNS.
(84) SEGMENTED CIRCLE LGTD.
LGTD 750 FT TOWER 1.75 MILES WEST OF ARPT ON HEADING OF 285 DEG FROM ARPT.

Instrument Procedures

NOTE: All procedures below are presented as PDF files. If you need a reader for these files, you should download the free Adobe Reader.

NOT FOR NAVIGATION. Please procure official charts for flight.
FAA instrument procedures published for use from 24 May 2018 at 0901Z to 21 June 2018 at 0900Z.

 
STARs - Standard Terminal Arrivals
KAYOH SEVEN   download (302KB)
 
IAPs - Instrument Approach Procedures
RNAV (GPS) RWY 24 **CHANGED**   download (221KB)
LOC/DME RWY 24 **CHANGED**   download (250KB)
VOR-A **CHANGED**   download (198KB)
NOTE: Special Alternate Minimums apply   download (18KB)
 
Departure Procedures
ANAHEIM NINE   2 pages: [1] [2] (362KB)
HAWWC TWO (RNAV)   download (176KB)
NOTE: Special Take-Off Minimums/Departure Procedures apply   download (132KB)

Other nearby airports with instrument procedures:

KSLI - Los Alamitos Army Airfield (6 nm SW)
KLGB - Long Beach Airport (Daugherty Field) (9 nm W)
KSNA - John Wayne-Orange County Airport (13 nm SE)
KEMT - San Gabriel Valley Airport (13 nm N)
KPOC - Brackett Field Airport (16 nm NE)
KHHR - Jack Northrop Field/Hawthorne Municipal Airport (18 nm W)
KCNO - Chino Airport (18 nm E)
KTOA - Zamperini Field Airport (18 nm W)
KAJO - Corona Municipal Airport (19 nm E)
 
Loc | Ops | Rwys | IFR | FBO | Links
Com | Nav | Svcs | Stats | Notes

AFI
 
Area around KFUL (Fullerton Municipal Airport)
 
Road maps at: MapQuest Bing Google
 
Aerial photo
WARNING: Photo may not be current or correct
Aerial photo of KFUL (Fullerton Municipal Airport)
Photo courtesy of focalflight.com
Photo taken 09-Feb-2017
looking west.

Do you have a better or more recent aerial photo of Fullerton Municipal Airport that you would like to share? If so, please send us your photo.

 
Sectional chart

 
Airport diagram
CAUTION: Diagram may not be current
Diagram of KFUL (Fullerton Municipal Airport)
Download PDF
of official airport diagram from the FAA

 
Airport distance calculator
Flying to Fullerton Municipal Airport? Find the distance to fly.

From to KFUL

Sunrise and sunset
Times for 18-Jun-2018
 Local
(UTC-7)
 Zulu
(UTC)
Morning civil twilight05:1312:13
Sunrise05:4212:42
Sunset20:0403:04
Evening civil twilight20:3303:33

Current date and time
Zulu (UTC)  19-Jun-2018 01:17:46
Local (UTC-7)  18-Jun-2018 18:17:46
 
METAR
KFUL 190053Z 27005KT 10SM CLR 23/12 A2995 RMK AO2 SLP140 T02280122
KSLI 
7nm SW 
190058Z AUTO 28006KT 10SM CLR 22/12 A2996 RMK AO2 SLP148 T02240123
KLGB 
9nm W 
190053Z 32010KT 10SM CLR 22/12 A2996 RMK AO2 SLP145 T02170122
KEMT 
12nm N 
190051Z 22010KT 10SM CLR 22/11 A2997
KSNA 
14nm SE 
190053Z 24008KT 10SM CLR 21/12 A2997 RMK AO2 SLP146 T02060122
KCQT 
17nm NW 
190047Z AUTO 10SM CLR 21/12 A2996 RMK AO2 SLP145 T02060122
KPOC 
17nm NE 
190047Z 26012KT 10SM CLR 22/11 A2999
KTOA 
18nm W 
190047Z 27017KT 10SM FEW030 19/13 A2997
KHHR 
18nm W 
190053Z 24012KT 10SM CLR 19/13 A2997 RMK AO2 SLP149 T01940128
KAJO 
19nm E 
190056Z AUTO 27012G19KT 10SM CLR 23/12 A2995 RMK AO2 SLP149 T02330122 $
TAF
KSLI 
7nm SW 
182202Z 1821/2003 19009KT 9999 FEW030 QNH2994INS BECMG 1908/1909 VRB06KT 9999 SCT015 QNH2995INS BECMG 1910/1911 VRB06KT 6000 BR BKN015 QNH2993INS BECMG 1917/1918 VRB06KT 9999 NSW FEW010 SCT030 QNH2991INS BECMG 1920/1921 20009KT 9999 SKC QNH2989INS TX23/1822Z TN13/1913Z
KLGB 
9nm W 
181729Z 1818/1918 22003KT P6SM FEW027 OVC040 FM181830 19008KT P6SM FEW040 FM190000 30008KT P6SM SKC FM190600 VRB03KT P6SM SCT010 BKN020
KSNA 
14nm SE 
181735Z 1818/1918 30004KT P6SM SCT030 BKN040 FM182000 23010KT P6SM FEW030 FM190200 VRB04KT P6SM FEW250 FM190600 VRB03KT P6SM BKN017 FM191600 VRB04KT P6SM SCT020
NOTAMs
Click for the latest NOTAMs
NOTAMs are issued by the DoD/FAA and will open in a separate window not controlled by AirNav.

 

 
 

FBO, Fuel Providers, and Aircraft Ground Support

  
 Business Name 
 
 Contact 
 
 Services / Description 
 
Fuel Prices
 
Comments
  
Aviation Facilities, Inc. 123.30
714-870-9931
714-773-0741
[web site]
FREE TIE-DOWNS available on a first-come/first-served basis with fuel purchase. Call on 123.3 for availability.
More info and photos of Aviation Facilities, Inc.
EPIC
100LL
PA $5.20 
PS $5.45 
 Updated 15-Jun-2018
 
   1 read write
General Aviation Co., Inc.
No ramp fees
UNICOM 122.95
714-526-6611
714-526-0921
[web site]
[email]
At General Aviation Co, Inc., we strive to maintain the excellent and personalized customer service we are known for.

We offer:
-100LL Avgas, Jet-A Fuel
-Aircraft Maintenance
-Executive Hangar Space, complete with staging/fueling service
-Free tie-down with fuel purchase (no minimum)
-Low fuel prices
-Rental cars also available (Hertz, Enterprise, AVIS)
-Crew Car available (first come, first serve)
-Line Service Personnel certified by NATA Safety 1st.

Not taking fuel this time?
Stop by for a cup of Starbucks coffee, or one of our cookies, baked in house!
More info and photos of General Aviation Co., Inc.
 
NATA Safety 1st   U.S. Government AIR Card   WingPoints™ Rewards   Crew car   Avis   Enterprise Rent-A-Car   Hertz   Wireless Internet Access (WiFi)   National Business Aviation Association  
 
Phillips 66
100LL Jet A
FS $5.70 $5.90 
SS $5.10 $5.25 
 Updated 10-Jun-2018
 
   10 read write
FS=Full service
PA=Pilot-Assisted
PS=Pump service
SS=Self service
Update Fuel Prices
 

Aviation Businesses, Services, and Facilities

  
 Business Name 
 
 Contact 
 
 Services / Description 
 
Distance
 
Comments
  
Leading Edge Avionics
Leading Edge Avionics
toll-free 1-855-955-6151
[web site]
[email]

Like us on facebook See us on instagram Follow us on twitter
Leading Edge Avionics is a FAA Certified Part 145 Repair Station (137R236D) that provides outstanding avionics repair and installation services for all General Aviation aircraft from business jets to helicopters to single engine airplanes. We are committed to delivering our customers with services that ensure uncompromised safety and the highest quality of workmanship and reliability, while exceeding our clients' expectations on all levels. 24/7 AOG Service is also available at all Southern California airports, so call us at (855) 955-6151 and let us exceed all your service expectations!
More info and photos of Leading Edge Avionics
located at KSNA  
   write
 

Where to Eat: Catering, Restaurants, Food shops

  
 Business Name 
 
 Contact 
 
 Services / Description 
 
Distance
 
Comments
  
 Wings Cafe
714-735-8432
[web site]
[email]
Restaurant

More info about Wings Cafe
on airport  
   1 read write
 

Would you like to see your business listed on this page?

 If your business provides an interesting product or service to pilots, flight crews, aircraft, or users of the Fullerton Municipal Airport, you should consider listing it here.  To start the listing process, click on the button below
 
Add a business
 

Other Pages about Fullerton Municipal Airport

www.ci.fullerton.ca.us/...
 
Update a link
 
Copyright © AirNav, LLC. All rights reserved. Privacy Policy  Contact